Tracking 19219 objects as of 21-Jul-2018
HD Live streaming from Space Station
objects crossing your sky now

SL-12 R/B(AUX MOTOR) DEB

Track SL-12 R/B(AUX MOTOR) DEB now!
10-day predictions


NORAD ID: 41810
Int'l Code: 2006-062Q
Perigee: 285.5 km
Apogee: 16,484.0 km
Inclination: 64.7 °
Period: 297.3 minutes
Semi major axis: 14755 km
RCS: Unknown
Launch date: December 25, 2006
Source: Commonwealth of Independent States (former USSR) (CIS)
Launch site: TYURATAM MISSILE AND SPACE COMPLEX (TTMTR)

Note: This is SATELLITE DEBRIS
aabbcc
Your satellite tracking list
Your tracking list is empty




NASA's NSSDC Master Catalog

Two Line Element Set (TLE):
1 41810U 06062Q   18201.43775726  .00016287  00000-0  22742-2 0  9994
2 41810  64.6920 314.9346 5488906 357.0939   0.6820  4.84352247 32201
Source of the keplerian elements: AFSPC